Regional Weather Roundup
Issued by NWS

Home | Current Version | Previous Version | Text Only | Print | Product List | Glossary On
Versions: 1 2 3 4 5 6 7 8 9 10 11 12 13 14 15 16 17 18 19 20 21 22 23 24 25 26 27 28 29 30 31 32 33 34 35 36 37 38 39 40 41 42 43 44 45 46 47 48 49 50
000
ASUS44 KBMX 240910
RWRAL

ALABAMA REGIONAL WEATHER ROUNDUP
NATIONAL WEATHER SERVICE BIRMINGHAM AL
400 AM CDT THU JUL 24 2014

NOTE: "FAIR" INDICATES FEW OR NO CLOUDS BELOW 12,000 FEET
WITH NO SIGNIFICANT WEATHER AND/OR OBSTRUCTIONS TO VISIBILITY.

THE REMARK "TC" DENOTES TEMPERATURE IN DEGREES CELSIUS.

ALZ001>011-014-016>018-020-241000-
NORTH ALABAMA

CITY           SKY/WX    TMP DP  RH WIND       PRES   REMARKS
MUSCLE SHOALS  MOCLDY    71  68  90 CALM      29.97S
HUNTSVILLE     MOCLDY    72  70  94 CALM      29.96S FOG
DECATUR        PTCLDY    68  68 100 S5        29.96F FOG
HALEYVILLE     MOCLDY    70  70 100 CALM      30.00F
GADSDEN        MOCLDY    72  70  94 W3        29.97R
$$

ALZ012-013-022-023-030>036-040>044-241000-
WEST CENTRAL ALABAMA

CITY           SKY/WX    TMP DP  RH WIND       PRES   REMARKS
TUSCALOOSA     MOCLDY    71  70  96 CALM      29.97F
$$

ALZ015-024>027-033>036-040>044-241000-
CENTRAL ALABAMA

CITY           SKY/WX    TMP DP  RH WIND       PRES   REMARKS
BIRMINGHAM     CLOUDY    74  69  85 CALM      29.99S
MONTGOMERY     PTCLDY    75  71  87 SW3       29.98S FOG
SHELBY CO ARPT MOCLDY    73  71  93 CALM      29.98S FOG
MAXWELL AFB    CLEAR     74  74 100 SW3       29.98R
GREENVILLE     FAIR      73  70  90 CALM      29.99S FOG
$$

ALZ019-021-028-029-037-038-045>048-241000-
EAST CENTRAL ALABAMA

CITY           SKY/WX    TMP DP  RH WIND       PRES   REMARKS
ANNISTON       CLOUDY    71  69  93 W3        29.99R
ALEXANDER CITY CLEAR     76  71  85 CALM      30.00R HAZE
AUBURN         PTCLDY    72  68  88 SW5       30.03R
$$

ALZ051>064-241000-
SOUTHWEST ALABAMA

CITY           SKY/WX    TMP DP  RH WIND       PRES   REMARKS
MOBILE         CLEAR     71  71 100 CALM      29.98F
BROOKLEY FIELD CLEAR     72  71  97 CALM      29.98F
EVERGREEN      FOG       71  69  93 CALM      29.99S VSB 1
$$

ALZ049-050-065>069-241000-
SOUTHEAST ALABAMA

CITY           SKY/WX    TMP DP  RH WIND       PRES   REMARKS
DOTHAN         CLEAR     73  71  93 CALM      30.03S
OZARK          CLEAR     73  71  96 SW2       29.99S
TROY           CLEAR     72  70  93 CALM      30.00S FOG
EUFAULA        FAIR      72  70  93 CALM      29.98S FOG
$$


USA.gov is the U.S. government's official web portal to all federal, state and local government web resources and services.